2017-008CD

Last updated on Thu Mar 02 2017 00:15:03 GMT+0000 (Coordinated Universal Time)

1 42023U 17008CD 17060.60656722 .00001496 00000-0 69388-4 0 9993 2 42023 97.5120 122.2211 0007676 204.1582 155.9275 15.21624483 2176

Satellite not in orbit

2017-008CD